Printer-friendly version

IAU Minor Planet Center

Minor Planet Center

MPEC 2005-G78 : 2005 GZ110

The following Minor Planet Electronic Circular may be linked-to from your own Web pages, but must not otherwise be redistributed electronically.


Read MPEC 2005-G77 Read MPEC 2005-G79


M.P.E.C. 2005-G78                                Issued 2005 Apr. 12, 11:32 UT

     The Minor Planet Electronic Circulars contain information on unusual
         minor planets and routine data on comets.  They are published
   on behalf of Commission 20 of the International Astronomical Union by the
          Minor Planet Center, Smithsonian Astrophysical Observatory,
                          Cambridge, MA 02138, U.S.A.

                  Supported in part by the Brinson Foundation
             Prepared using the Tamkin Foundation Computer Network

                              MPC@CFA.HARVARD.EDU
          URL http://cfa-www.harvard.edu/iau/mpc.html  ISSN 1523-6714

                                  2005 GZ110

Observations:
     K05GB0Z* C2005 04 11.21433 11 16 33.69 +14 25 47.7          19.2 R EG078699
     K05GB0Z  C2005 04 11.23136 11 16 33.01 +14 28 11.5                 EG078699
     K05GB0Z  C2005 04 11.24842 11 16 32.30 +14 30 37.4                 EG078699
     K05GB0Z  C2005 04 11.26548 11 16 31.63 +14 33 03.0                 EG078699
     K05GB0Z  C2005 04 11.84749 11 16 27.78 +15 56 52.7                 EG078J95
     K05GB0Z  C2005 04 11.85664 11 16 27.49 +15 58 13.9                 EG078J95
     K05GB0Z  C2005 04 11.86455 11 16 27.24 +15 59 23.4          19.8 R EG078J95
     K05GB0Z  C2005 04 11.86761 11 16 26.52 +15 59 53.4          19.5 V EG078A17
     K05GB0Z  C2005 04 11.89505 11 16 25.62 +16 03 57.8          19.0 V EG078A17
     K05GB0Z  C2005 04 11.92470 11 16 24.64 +16 08 21.0          19.0 V EG078A17
     K05GB0Z  C2005 04 12.13034 11 16 26.23 +16 39 20.6          18.5 R EG078G90
     K05GB0Z  C2005 04 12.13422 11 16 26.09 +16 39 55.6          18.6 R EG078G90
     K05GB0Z  C2005 04 12.13812 11 16 25.96 +16 40 30.9          18.6 R EG078G90
     K05GB0Z 5C2005 04 12.21233 11 16 23.67 +16 51 42.6          19.0 R EG078673
     K05GB0Z 5C2005 04 12.21441 11 16 23.57 +16 52 01.3                 EG078673
     K05GB0Z  C2005 04 12.22556 11 16 22.49 +16 53 45.5          19.4 R EG078651
     K05GB0Z 5C2005 04 12.22622 11 16 23.12 +16 53 46.0                 EG078673
     K05GB0Z  C2005 04 12.22667 11 16 22.45 +16 53 55.1          19.5 R EG078651
     K05GB0Z  C2005 04 12.22768 11 16 22.42 +16 54 04.2          19.6 R EG078651
     K05GB0Z 5C2005 04 12.22830 11 16 23.03 +16 54 05.5                 EG078673
     K05GB0Z 5C2005 04 12.24010 11 16 22.56 +16 55 52.6                 EG078673
     K05GB0Z 5C2005 04 12.24219 11 16 22.45 +16 56 11.5                 EG078673
     K05GB0Z 2C2005 04 12.31155 11 16 18.83 +17 06 40.6          19.1 R EG078H06
     K05GB0Z 2C2005 04 12.31553 11 16 18.80 +17 07 15.6          18.8 R EG078H06
     K05GB0Z  C2005 04 12.45185 11 16 20.49 +17 29 44.9          18.7 R EG078474
     K05GB0Z  C2005 04 12.45289 11 16 20.41 +17 29 54.8          18.7 R EG078474
     K05GB0Z  C2005 04 12.45451 11 16 20.33 +17 30 09.7          18.6 R EG078474
     K05GB0Z  C2005 04 12.45660 11 16 20.30 +17 30 27.7          18.6 R EG078474
     K05GB0Z  C2005 04 12.46019 11 16 20.18 +17 31 01.8          18.8 R EG078474

Observer details:
474 Mount John Observatory, Lake Tekapo.  Observer A. C. Gilmore.  Measurer
    P. M. Kilmartin.  1.0-m f/7.7 reflector + CCD.
651 Grasslands Observatory, Tucson.  Observer J. E. McGaha.  0.62-m f/5.1
    Newtonian reflector + CCD.
673 Table Mountain Observatory, Wrightwood.  Observer D. Mayes.  0.6-m
    reflector + CCD.
699 Lowell Observatory-LONEOS.  Observer B. A. Skiff.  0.59-m LONEOS Schmidt
    + CCD.
A17 Guidestar Observatory, Weinheim.  Observers M. Emmerich, S. Melchert.
    0.36-m f/6 Schmidt-Cassegrain + CCD.
G90 Three Buttes Observatory, Tucson.  Observer G. R. Jones.  0.40-m
    Ritchey-Chretien + CCD.
H06 New Mexico Skies Observatory.  Observer R. Hutsebaut.  0.25-m reflector
    + CCD.
J95 Great Shefford.  Observer P. Birtwhistle.  0.30-m f/6.3 Schmidt-Cassegrain
    + CCD.

Orbital elements:
2005 GZ110
Epoch 2005 Mar. 31.0 TT = JDT 2453460.5                 MPC
M 333.25298              (2000.0)            P               Q
n   0.45198520     Peri.   60.67469     -0.27854029     +0.95941339
a   1.6815892      Node   193.37238     -0.93396335     -0.28127525
e   0.4391660      Incl.   10.98224     -0.22389231     -0.02025307
P   2.18           H   22.5           G   0.15
From 29 observations 2005 Apr. 11-12.

Ephemeris:
2005 GZ110               a,e,i = 1.68, 0.44, 11                  q = 0.9431
Date    TT    R. A. (2000) Decl.     Delta      r     Elong.  Phase     V
2005 04 10    11 16.85   +11 41.1    0.113    1.096   144.8    31.8    19.3
2005 04 20    11 17.84   +41 19.6    0.0846   1.045   116.5    59.4    19.4
2005 04 30    11 49.72   +78 44.4    0.0884   1.002    84.0    90.9    20.5
2005 05 10    22 45.37   +75 17.1    0.119    0.969    66.9   106.6    21.8
2005 05 20    23 08.71   +61 05.9    0.161    0.949    62.8   108.5    22.5

Timothy B. Spahr             (C) Copyright 2005 MPC           M.P.E.C. 2005-G78

Read MPEC 2005-G77 Read MPEC 2005-G79


Our Web policy. Index to the CBAT/MPC/ICQ pages.


Valid HTML 4.01!